Location: Bremen
(53.0830°N, 8.8000°E)
Time: 18:17:31
(UTC+01:00)

Envisat - Pass Details

Date: 06 October 2022
Orbit: 763 x 765 km, 98.2° (Epoch: 30 November)

Event Time Altitude Azimuth Distance (km) Brightness Sun altitude
Rises 05:43:42 0° 16° (NNE) 3,248 6.7 -17.4°
Reaches altitude 10° 05:46:03 10° 20° (NNE) 2,317 5.9 -17.0°
Maximum altitude 05:51:08 65° 102° (ESE) 841 3.4 -16.3°
Drops below altitude 10° 05:56:10 10° 185° (S) 2,299 5.3 -15.5°
Sets 05:58:29 0° 188° (S) 3,220 6.0 -15.2°
